YN7ZFC-13 Weather Reports


time (UTC)temp
F
wind
direction
speed
knots
gust
knots
rain 1hr
in
rain 24hr
in
rain mn
in
humidity
%
barometer
mb
20260504160409 85 80 11.3 0.0 0.00 0.00 0.00 62 1012.0
20260504150407 82 10 3.5 0.0 0.00 0.00 0.00 69 1012.0
20260504140406 80 90 3.5 0.0 0.00 0.00 0.00 69 1012.0
20260504130404 75 90 7.0 0.0 0.00 0.00 0.00 76 1012.0
20260504110400 75 90 7.8 0.0 0.00 0.00 0.00 72 1011.0
20260504100358 75 110 7.0 0.0 0.00 0.00 0.00 72 1011.0
20260504081354 73 126 4.3 9.6 0.00 0.00 0.00 69 1011.0
20260504080354 74 126 4.3 9.6 0.00 0.00 0.00 69 1011.0
20260504070352 77 126 4.3 9.6 0.00 0.00 0.00 69 1012.0
20260504050348 83 110 9.6 0.0 0.00 0.00 0.00 68 1013.0
20260504045348 83 110 9.6 0.0 0.00 0.00 0.00 67 1013.0
20260504044348 84 110 9.6 0.0 0.00 0.00 0.00 65 1013.0
20260504043347 85 110 9.6 0.0 0.00 0.00 0.00 63 1013.0
20260504042347 86 110 9.6 0.0 0.00 0.00 0.00 61 1013.0
20260504041347 86 110 9.6 0.0 0.00 0.00 0.00 58 1013.0
20260504040346 86 110 9.6 0.0 0.00 0.00 0.00 54 1013.0
20260504035346 86 110 9.6 0.0 0.00 0.00 0.00 54 1013.0
20260504034346 86 110 9.6 0.0 0.00 0.00 0.00 54 1013.0
20260504033345 85 110 9.6 0.0 0.00 0.00 0.00 51 1013.0
20260504032345 85 120 9.6 0.0 0.00 0.00 0.00 49 1012.0
20260504031345 85 120 9.6 0.0 0.00 0.00 0.00 49 1012.0
20260504030344 85 120 9.6 0.0 0.00 0.00 0.00 49 1012.0
20260504025344 85 120 9.6 0.0 0.00 0.00 0.00 49 1012.0
20260504024344 85 120 9.6 0.0 0.00 0.00 0.00 49 1012.0
20260504023344 85 120 9.6 0.0 0.00 0.00 0.00 49 1011.0
20260504022344 85 120 9.6 0.0 0.00 0.00 0.00 49 1011.0
20260504021343 85 120 9.6 0.0 0.00 0.00 0.00 49 1011.0
20260504020343 84 120 9.6 0.0 0.00 0.00 0.00 49 1011.0
20260504015342 83 120 9.6 0.0 0.00 0.00 0.00 49 1011.0
20260504014342 84 120 9.6 0.0 0.00 0.00 0.00 49 1011.0
20260504013342 85 120 9.6 0.0 0.00 0.00 0.00 49 1011.0
20260504012341 86 120 9.6 0.0 0.00 0.00 0.00 49 1010.0
20260504011341 87 120 9.6 0.0 0.00 0.00 0.00 49 1010.0
20260504010341 87 120 9.6 0.0 0.00 0.00 0.00 49 1010.0
20260504005340 87 120 9.6 0.0 0.00 0.00 0.00 49 1010.0
20260504004340 88 120 9.6 0.0 0.00 0.00 0.00 49 1009.0
20260504003339 91 120 11.3 0.0 0.00 0.00 0.00 44 1009.0
20260504002339 91 120 11.3 0.0 0.00 0.00 0.00 43 1008.0
20260504001339 91 120 11.3 0.0 0.00 0.00 0.00 42 1008.0
20260504000338 91 120 11.3 0.0 0.00 0.00 0.00 42 1008.0
20260503235338 91 120 11.3 0.0 0.00 0.00 0.00 42 1008.0
20260503234338 91 120 11.3 0.0 0.00 0.00 0.00 42 1008.0
20260503233337 92 120 11.3 0.0 0.00 0.00 0.00 41 1007.0
20260503232337 92 120 11.3 0.0 0.00 0.00 0.00 41 1007.0
20260503231337 92 120 11.3 0.0 0.00 0.00 0.00 41 1008.0
20260503230337 92 120 11.3 0.0 0.00 0.00 0.00 41 1008.0
20260503225336 92 120 11.3 0.0 0.00 0.00 0.00 41 1008.0
20260503224336 93 120 11.3 0.0 0.00 0.00 0.00 41 1008.0
20260503223336 94 120 11.3 0.0 0.00 0.00 0.00 41 1008.0
20260503222335 94 120 11.3 0.0 0.00 0.00 0.00 41 1007.0
20260503221335 94 100 11.3 0.0 0.00 0.00 0.00 41 1007.0
20260503220335 94 100 11.3 0.0 0.00 0.00 0.00 41 1007.0
20260503215334 94 100 11.3 0.0 0.00 0.00 0.00 41 1007.0
20260503214334 94 100 11.3 0.0 0.00 0.00 0.00 41 1008.0
20260503213333 94 100 11.3 0.0 0.00 0.00 0.00 41 1008.0
20260503212333 94 100 11.3 0.0 0.00 0.00 0.00 41 1008.0
20260503211332 94 100 11.3 0.0 0.00 0.00 0.00 41 1008.0
20260503210332 94 100 11.3 0.0 0.00 0.00 0.00 41 1008.0
20260503205332 94 100 11.3 0.0 0.00 0.00 0.00 42 1008.0
20260503204331 94 100 11.3 0.0 0.00 0.00 0.00 44 1008.0
20260503203330 94 100 11.3 0.0 0.00 0.00 0.00 46 1008.0
20260503202330 94 100 11.3 0.0 0.00 0.00 0.00 49 1009.0
20260503201330 94 90 9.6 0.0 0.00 0.00 0.00 52 1009.0
20260503200330 95 90 9.6 0.0 0.00 0.00 0.00 52 1009.0
20260503195329 95 90 9.6 0.0 0.00 0.00 0.00 52 1009.0
20260503194329 91 90 9.6 0.0 0.00 0.00 0.00 52 1009.0
20260503193329 92 90 9.6 0.0 0.00 0.00 0.00 52 1009.0
20260503192329 92 90 9.6 0.0 0.00 0.00 0.00 52 1010.0
20260503191328 92 90 9.6 0.0 0.00 0.00 0.00 52 1010.0
20260503190328 92 90 9.6 0.0 0.00 0.00 0.00 52 1010.0
20260503185327 92 90 9.6 0.0 0.00 0.00 0.00 52 1010.0
20260503184327 92 90 9.6 0.0 0.00 0.00 0.00 52 1010.0
20260503183327 89 90 9.6 0.0 0.00 0.00 0.00 54 1011.0
20260503182326 89 90 9.6 0.0 0.00 0.00 0.00 54 1011.0
20260503181326 90 90 9.6 0.0 0.00 0.00 0.00 54 1011.0
20260503180326 90 90 9.6 0.0 0.00 0.00 0.00 54 1011.0
20260503175325 89 90 9.6 0.0 0.00 0.00 0.00 55 1011.0
20260503174325 90 90 9.6 0.0 0.00 0.00 0.00 55 1012.0
20260503173324 89 90 9.6 0.0 0.00 0.00 0.00 56 1012.0
20260503172324 90 90 9.6 0.0 0.00 0.00 0.00 56 1013.0
20260503171324 87 90 9.6 0.0 0.00 0.00 0.00 57 1013.0
20260503170324 88 90 9.6 0.0 0.00 0.00 0.00 57 1013.0